"read_dt","SO2 (ppb)","flags","PMT voltage (V)","lamp voltage (V)","lamp intensity (Hz)","internal temp (C)","react chamber temp (C)","sample flow (l/min)","pres (mmHg)","SO2 bkg (ppb)","SO2 coefficient"
2013-12-15 00:00:00,5132E-4,5C000000,-0724,0974,10833,027.9,045.3,0.395,744.3,01.18,0.508
2013-12-15 00:01:00,6822E-4,5C000000,-0724,0974,10774,027.9,045.4,0.394,744.5,01.17,0.508
2013-12-15 00:02:00,4319E-4,5C000000,-0724,0974,10837,027.9,045.3,0.395,744.5,01.17,0.508
2013-12-15 00:03:00,4847E-4,5C000000,-0724,0975,10824,027.9,045.3,0.394,744.6,01.17,0.508
2013-12-15 00:04:00,5365E-4,5C000000,-0724,0975,10728,027.9,045.3,0.394,744.5,01.17,0.508
2013-12-15 00:05:00,5403E-4,5C000000,-0724,0974,10808,028.0,045.3,0.395,744.4,01.18,0.508
2013-12-15 00:06:00,4582E-4,5C000000,-0724,0975,10969,027.9,045.3,0.394,744.6,01.17,0.508
2013-12-15 00:07:00,5807E-4,5C000000,-0724,0974,10739,028.0,045.3,0.395,744.7,01.17,0.508
2013-12-15 00:08:00,5280E-4,5C000000,-0724,0974,10904,027.9,045.3,0.395,744.5,01.17,0.508
2013-12-15 00:09:00,4855E-4,5C000000,-0724,0974,10727,028.0,045.3,0.395,744.7,01.17,0.508
2013-12-15 00:10:00,4904E-4,5C000000,-0724,0974,10620,028.0,045.3,0.394,744.8,01.17,0.508
2013-12-15 00:11:00,4535E-4,5C000000,-0724,0975,10829,028.0,045.4,0.395,744.6,01.17,0.508
2013-12-15 00:12:00,5208E-4,5C000000,-0724,0973,10761,028.0,045.3,0.394,744.8,01.17,0.508
2013-12-15 00:13:00,4546E-4,5C000000,-0724,0974,10835,028.0,045.3,0.395,744.7,01.17,0.508
2013-12-15 00:14:00,3966E-4,5C000000,-0724,0974,10772,028.0,045.3,0.395,744.7,01.17,0.508
2013-12-15 00:15:00,3521E-4,5C000000,-0724,0974,10757,028.0,045.3,0.394,744.7,01.17,0.508
2013-12-15 00:16:00,3674E-4,5C000000,-0724,0974,10777,028.0,045.4,0.395,744.6,01.17,0.508
2013-12-15 00:17:00,4577E-4,5C000000,-0724,0975,10711,028.0,045.3,0.394,744.6,01.17,0.508
2013-12-15 00:18:00,4052E-4,5C000000,-0724,0974,10775,028.0,045.3,0.395,744.4,01.18,0.508
2013-12-15 00:19:00,4733E-4,5C000000,-0724,0974,10771,028.0,045.4,0.395,744.6,01.17,0.508
2013-12-15 00:20:00,4114E-4,5C000000,-0724,0974,10790,028.0,045.4,0.394,744.4,01.18,0.508
2013-12-15 00:21:00,4491E-4,5C000000,-0724,0973,10726,028.0,045.3,0.395,744.3,01.18,0.508
2013-12-15 00:22:00,5885E-4,5C000000,-0724,0973,10841,028.0,045.4,0.394,744.4,01.18,0.508
2013-12-15 00:23:00,4064E-4,5C000000,-0724,0975,10738,028.0,045.3,0.395,744.4,01.18,0.508
2013-12-15 00:24:00,4521E-4,5C000000,-0724,0975,10964,028.0,045.3,0.394,744.3,01.18,0.508
2013-12-15 00:25:00,5351E-4,5C000000,-0724,0974,10920,028.0,045.3,0.394,744.4,01.18,0.508
2013-12-15 00:26:00,5140E-4,5C000000,-0724,0974,10731,028.0,045.3,0.394,744.6,01.17,0.508
2013-12-15 00:27:00,4724E-4,5C000000,-0724,0974,10815,028.0,045.4,0.395,744.5,01.17,0.508
2013-12-15 00:28:00,3436E-4,5C000000,-0724,0974,10664,028.0,045.4,0.394,744.4,01.18,0.508
2013-12-15 00:29:00,5002E-4,5C000000,-0724,0974,10793,028.0,045.3,0.394,744.4,01.18,0.508
2013-12-15 00:30:00,4964E-4,5C000000,-0724,0974,10716,028.0,045.3,0.395,744.4,01.18,0.508
2013-12-15 00:31:00,3875E-4,5C000000,-0724,0975,10857,028.0,045.4,0.394,744.1,01.18,0.508
2013-12-15 00:32:00,4640E-4,5C000000,-0724,0975,10787,028.0,045.4,0.395,744.3,01.18,0.508
2013-12-15 00:33:00,3908E-4,5C000000,-0724,0974,10852,028.0,045.4,0.394,744.4,01.18,0.508
2013-12-15 00:34:00,4929E-4,5C000000,-0724,0974,10929,028.0,045.3,0.394,744.2,01.18,0.508
2013-12-15 00:35:00,4305E-4,5C000000,-0724,0975,10822,028.0,045.4,0.394,744.1,01.18,0.508
2013-12-15 00:36:00,4924E-4,5C000000,-0724,0974,10818,028.0,045.3,0.394,744.4,01.18,0.508
2013-12-15 00:37:00,3720E-4,5C000000,-0724,0974,10885,028.0,045.3,0.394,744.4,01.18,0.508
2013-12-15 00:38:00,4999E-4,5C000000,-0724,0974,10720,028.0,045.4,0.395,744.4,01.18,0.508
2013-12-15 00:39:00,3798E-4,5C000000,-0724,0975,10833,028.1,045.4,0.394,744.4,01.18,0.508
2013-12-15 00:40:00,5231E-4,5C000000,-0724,0974,10794,028.0,045.3,0.394,744.3,01.18,0.508
2013-12-15 00:41:00,4780E-4,5C000000,-0724,0975,10775,028.0,045.3,0.394,744.4,01.18,0.508
2013-12-15 00:42:00,4803E-4,5C000000,-0724,0974,10792,028.1,045.4,0.394,744.5,01.17,0.508
2013-12-15 00:43:00,4255E-4,5C000000,-0724,0973,10852,028.0,045.4,0.394,744.6,01.17,0.508
2013-12-15 00:44:00,3328E-4,5C000000,-0724,0975,10721,028.0,045.4,0.394,744.3,01.18,0.508
2013-12-15 00:45:00,5279E-4,5C000000,-0724,0974,10832,028.0,045.3,0.395,744.3,01.18,0.508
2013-12-15 00:46:00,5254E-4,5C000000,-0724,0974,10880,028.0,045.3,0.394,744.3,01.18,0.508
2013-12-15 00:47:00,5062E-4,5C000000,-0724,0974,10876,028.0,045.3,0.395,744.2,01.18,0.508
2013-12-15 00:48:00,4216E-4,5C000000,-0724,0974,10638,028.0,045.3,0.394,744.2,01.18,0.508
2013-12-15 00:49:00,4954E-4,5C000000,-0724,0974,10784,028.0,045.3,0.395,744.1,01.18,0.508
2013-12-15 00:50:00,3947E-4,5C000000,-0724,0974,10727,028.0,045.3,0.394,744.0,01.18,0.508
2013-12-15 00:51:00,4161E-4,5C000000,-0724,0973,10884,028.0,045.3,0.395,743.7,01.18,0.508
2013-12-15 00:52:00,4287E-4,5C000000,-0724,0975,10931,028.0,045.3,0.394,743.8,01.18,0.508
2013-12-15 00:53:00,4569E-4,5C000000,-0724,0974,10805,028.0,045.4,0.394,743.8,01.18,0.508
2013-12-15 00:54:00,4114E-4,5C000000,-0724,0974,10791,028.0,045.3,0.394,743.7,01.18,0.508
2013-12-15 00:55:00,4883E-4,5C000000,-0724,0974,10810,028.0,045.3,0.394,743.8,01.18,0.508
2013-12-15 00:56:00,4529E-4,5C000000,-0724,0974,10499,028.0,045.4,0.394,743.7,01.18,0.508
2013-12-15 00:57:00,5071E-4,5C000000,-0724,0974,10820,028.0,045.3,0.394,743.3,01.18,0.508
2013-12-15 00:58:00,4276E-4,5C000000,-0724,0974,10870,028.0,045.3,0.394,743.7,01.18,0.508
2013-12-15 00:59:00,5750E-4,5C000000,-0724,0974,10857,028.0,045.3,0.394,743.4,01.18,0.508
2013-12-15 01:00:00,4969E-4,5C000000,-0724,0975,10717,028.0,045.3,0.394,743.4,01.18,0.508
2013-12-15 01:01:00,3848E-4,5C000000,-0724,0974,10873,028.0,045.3,0.394,743.0,01.18,0.508
2013-12-15 01:02:00,4570E-4,5C000000,-0724,0974,10804,028.0,045.3,0.394,743.2,01.18,0.508
2013-12-15 01:03:00,4512E-4,5C000000,-0724,0974,10810,028.0,045.3,0.394,743.2,01.18,0.508
2013-12-15 01:04:00,5649E-4,5C000000,-0724,0973,10885,028.0,045.3,0.394,743.6,01.18,0.508
2013-12-15 01:05:00,4773E-4,5C000000,-0724,0973,10846,028.0,045.3,0.394,743.3,01.18,0.508
2013-12-15 01:06:00,4829E-4,5C000000,-0724,0975,10856,028.0,045.4,0.393,743.3,01.18,0.508
2013-12-15 01:07:00,4147E-4,5C000000,-0724,0974,10693,028.0,045.3,0.394,743.3,01.18,0.508
2013-12-15 01:08:00,5246E-4,5C000000,-0724,0974,10920,028.0,045.3,0.393,743.1,01.18,0.508
2013-12-15 01:09:00,5159E-4,5C000000,-0724,0975,10840,028.0,045.3,0.394,743.4,01.18,0.508
2013-12-15 01:10:00,6054E-4,5C000000,-0724,0974,10671,028.0,045.4,0.393,743.0,01.18,0.508
2013-12-15 01:11:00,4328E-4,5C000000,-0724,0974,10823,028.0,045.3,0.394,743.0,01.18,0.508
2013-12-15 01:12:00,5183E-4,5C000000,-0724,0973,10717,028.0,045.3,0.394,742.9,01.18,0.508
2013-12-15 01:13:00,4718E-4,5C000000,-0724,0974,10632,028.0,045.4,0.394,743.3,01.18,0.508
2013-12-15 01:14:00,4798E-4,5C000000,-0724,0974,10873,027.9,045.3,0.393,743.1,01.18,0.508
2013-12-15 01:15:00,4552E-4,5C000000,-0724,0973,10804,027.9,045.3,0.394,743.1,01.18,0.508
2013-12-15 01:16:00,4502E-4,5C000000,-0724,0973,10815,027.9,045.3,0.394,743.1,01.18,0.508
2013-12-15 01:17:00,5303E-4,5C000000,-0724,0974,10850,027.9,045.3,0.394,743.4,01.18,0.508
2013-12-15 01:18:00,4280E-4,5C000000,-0724,0974,10645,027.9,045.3,0.394,743.2,01.18,0.508
2013-12-15 01:19:00,4571E-4,5C000000,-0724,0974,10790,027.9,045.3,0.394,743.3,01.18,0.508
2013-12-15 01:20:00,4405E-4,5C000000,-0724,0973,10816,027.9,045.3,0.394,743.4,01.18,0.508
2013-12-15 01:21:00,5975E-4,5C000000,-0724,0973,10804,027.9,045.3,0.394,743.4,01.18,0.508
2013-12-15 01:22:00,4453E-4,5C000000,-0724,0973,10811,027.9,045.4,0.394,743.2,01.18,0.508
2013-12-15 01:23:00,5576E-4,5C000000,-0724,0974,10835,027.9,045.3,0.394,743.3,01.18,0.508
2013-12-15 01:24:00,4405E-4,5C000000,-0724,0974,10766,027.9,045.3,0.394,743.0,01.18,0.508
2013-12-15 01:25:00,4845E-4,5C000000,-0724,0975,10852,027.9,045.3,0.394,743.0,01.18,0.508
2013-12-15 01:26:00,3850E-4,5C000000,-0724,0974,10903,027.9,045.3,0.394,743.3,01.18,0.508
2013-12-15 01:27:00,5531E-4,5C000000,-0724,0974,10765,027.9,045.3,0.394,743.0,01.18,0.508
2013-12-15 01:28:00,4406E-4,5C000000,-0724,0973,10882,027.9,045.3,0.394,743.0,01.18,0.508
2013-12-15 01:29:00,5471E-4,5C000000,-0724,0974,10862,027.9,045.3,0.394,743.2,01.18,0.508
2013-12-15 01:30:00,4595E-4,5C000000,-0724,0974,10872,027.9,045.3,0.394,743.0,01.18,0.508
2013-12-15 01:31:00,5900E-4,5C000000,-0724,0973,10762,027.9,045.3,0.394,743.3,01.18,0.508
2013-12-15 01:32:00,5302E-4,5C000000,-0724,0973,10774,027.9,045.3,0.394,743.1,01.18,0.508
2013-12-15 01:33:00,4739E-4,5C000000,-0724,0973,10822,027.9,045.4,0.394,743.2,01.18,0.508
2013-12-15 01:34:00,4379E-4,5C000000,-0724,0974,10746,027.9,045.4,0.394,743.5,01.18,0.508
2013-12-15 01:35:00,4278E-4,5C000000,-0724,0974,10757,027.9,045.3,0.394,743.0,01.18,0.508
2013-12-15 01:36:00,5782E-4,5C000000,-0724,0974,10787,027.9,045.3,0.394,743.2,01.18,0.508
2013-12-15 01:37:00,4372E-4,5C000000,-0724,0974,10722,027.9,045.3,0.394,743.0,01.18,0.508
2013-12-15 01:38:00,4847E-4,5C000000,-0724,0973,10731,027.8,045.3,0.394,743.2,01.18,0.508
2013-12-15 01:39:00,5436E-4,5C000000,-0724,0974,10845,027.8,045.3,0.394,743.3,01.18,0.508
2013-12-15 01:40:00,4311E-4,5C000000,-0724,0975,10942,027.9,045.3,0.394,742.8,01.18,0.508
2013-12-15 01:41:00,3797E-4,5C000000,-0724,0974,10767,027.8,045.3,0.394,742.9,01.18,0.508
2013-12-15 01:42:00,4672E-4,5C000000,-0724,0973,10858,027.8,045.3,0.394,742.8,01.18,0.508
2013-12-15 01:43:00,5865E-4,5C000000,-0724,0973,10725,027.8,045.3,0.394,743.0,01.18,0.508
2013-12-15 01:44:00,4615E-4,5C000000,-0724,0974,10905,027.8,045.3,0.394,742.9,01.18,0.508
2013-12-15 01:45:00,5427E-4,5C000000,-0724,0974,10805,027.8,045.3,0.394,742.9,01.18,0.508
2013-12-15 01:46:00,4713E-4,5C000000,-0724,0974,10828,027.8,045.3,0.394,742.7,01.18,0.508
2013-12-15 01:47:00,3658E-4,5C000000,-0724,0974,10683,027.8,045.3,0.394,742.9,01.18,0.508
2013-12-15 01:48:00,4128E-4,5C000000,-0724,0974,10672,027.8,045.4,0.394,742.9,01.18,0.508
2013-12-15 01:49:00,4751E-4,5C000000,-0724,0973,10716,027.8,045.3,0.394,742.9,01.18,0.508
2013-12-15 01:50:00,4793E-4,5C000000,-0724,0974,10833,027.8,045.3,0.394,742.7,01.18,0.508
2013-12-15 01:51:00,5295E-4,5C000000,-0724,0973,10819,027.8,045.3,0.394,742.8,01.18,0.508
2013-12-15 01:52:00,4225E-4,5C000000,-0724,0973,10867,027.8,045.3,0.394,742.9,01.18,0.508
2013-12-15 01:53:00,4885E-4,5C000000,-0724,0974,10872,027.8,045.3,0.394,742.8,01.18,0.508
2013-12-15 01:54:00,4112E-4,5C000000,-0724,0974,10802,027.8,045.3,0.394,742.5,01.18,0.508
2013-12-15 01:55:00,4727E-4,5C000000,-0724,0973,10718,027.8,045.3,0.394,743.1,01.18,0.508
2013-12-15 01:56:00,4766E-4,5C000000,-0724,0973,10692,027.8,045.3,0.394,743.0,01.18,0.508
2013-12-15 01:57:00,5312E-4,5C000000,-0724,0973,10761,027.8,045.3,0.394,742.9,01.18,0.508
2013-12-15 01:58:00,4112E-4,5C000000,-0724,0973,10802,027.8,045.3,0.394,742.8,01.18,0.508
2013-12-15 01:59:00,4909E-4,5C000000,-0724,0973,10855,027.8,045.4,0.394,742.9,01.18,0.508
2013-12-15 02:00:00,4756E-4,5C000000,-0724,0973,10861,027.8,045.3,0.394,742.8,01.18,0.508
2013-12-15 02:01:00,4884E-4,5C000000,-0724,0974,10798,027.8,045.3,0.394,742.7,01.18,0.508
2013-12-15 02:02:00,4580E-4,5C000000,-0724,0973,10815,027.8,045.3,0.394,742.6,01.18,0.508
2013-12-15 02:03:00,4719E-4,5C000000,-0724,0973,10803,027.8,045.3,0.393,742.3,01.18,0.508
2013-12-15 02:04:00,4961E-4,5C000000,-0724,0973,10756,027.8,045.3,0.394,742.4,01.18,0.508
2013-12-15 02:05:00,5157E-4,5C000000,-0724,0974,10857,027.8,045.3,0.394,742.7,01.18,0.508
2013-12-15 02:06:00,5115E-4,5C000000,-0724,0974,10856,027.8,045.3,0.394,742.4,01.18,0.508
2013-12-15 02:07:00,4625E-4,5C000000,-0724,0974,10831,027.8,045.3,0.394,742.4,01.18,0.508
2013-12-15 02:08:00,5171E-4,5C000000,-0724,0973,10861,027.8,045.3,0.394,742.5,01.18,0.508
2013-12-15 02:09:00,4987E-4,5C000000,-0724,0974,10898,027.8,045.3,0.394,742.5,01.18,0.508
2013-12-15 02:10:00,4041E-4,5C000000,-0724,0973,10664,027.8,045.3,0.394,742.3,01.18,0.508
2013-12-15 02:11:00,4771E-4,5C000000,-0724,0974,10903,027.9,045.4,0.394,742.1,01.18,0.508
2013-12-15 02:12:00,5383E-4,5C000000,-0724,0974,10713,027.8,045.3,0.394,742.4,01.18,0.508
2013-12-15 02:13:00,4439E-4,5C000000,-0724,0973,10723,027.8,045.3,0.394,742.5,01.18,0.508
2013-12-15 02:14:00,5638E-4,5C000000,-0724,0973,10763,027.8,045.3,0.394,742.2,01.18,0.508
2013-12-15 02:15:00,5336E-4,5C000000,-0724,0973,10963,027.8,045.4,0.393,742.1,01.18,0.508
2013-12-15 02:16:00,3728E-4,5C000000,-0724,0972,10804,027.8,045.3,0.394,741.8,01.18,0.508
2013-12-15 02:17:00,4170E-4,5C000000,-0724,0973,10809,027.8,045.3,0.393,741.7,01.18,0.508
2013-12-15 02:18:00,3988E-4,5C000000,-0724,0973,10661,027.8,045.3,0.393,742.1,01.18,0.508
2013-12-15 02:19:00,4830E-4,5C000000,-0724,0973,10715,027.8,045.3,0.394,741.9,01.18,0.508
2013-12-15 02:20:00,4007E-4,5C000000,-0724,0974,10845,027.8,045.3,0.393,741.9,01.18,0.508
2013-12-15 02:21:00,5493E-4,5C000000,-0724,0974,10891,027.8,045.3,0.394,742.1,01.18,0.508
2013-12-15 02:22:00,4520E-4,5C000000,-0724,0973,10748,027.7,045.3,0.394,742.3,01.18,0.508
2013-12-15 02:23:00,4753E-4,5C000000,-0724,0974,10770,027.7,045.3,0.394,742.3,01.18,0.508
2013-12-15 02:24:00,4397E-4,5C000000,-0724,0973,10773,027.7,045.3,0.394,742.3,01.18,0.508
2013-12-15 02:25:00,4347E-4,5C000000,-0724,0975,10915,027.7,045.3,0.394,742.4,01.18,0.508
2013-12-15 02:26:00,4661E-4,5C000000,-0724,0973,10651,027.7,045.3,0.394,742.6,01.18,0.508
2013-12-15 02:27:00,4342E-4,5C000000,-0724,0973,10649,027.7,045.4,0.394,742.6,01.18,0.508
2013-12-15 02:28:00,4209E-4,5C000000,-0724,0973,10769,027.8,045.3,0.394,742.6,01.18,0.508
2013-12-15 02:29:00,4197E-4,5C000000,-0724,0973,10736,027.7,045.4,0.394,742.5,01.18,0.508
2013-12-15 02:30:00,5940E-4,5C000000,-0724,0974,10876,027.8,045.3,0.394,742.5,01.18,0.508
2013-12-15 02:31:00,4817E-4,5C000000,-0724,0973,10715,027.7,045.3,0.394,742.6,01.18,0.508
2013-12-15 02:32:00,4474E-4,5C000000,-0724,0975,10805,027.8,045.3,0.394,742.4,01.18,0.508
2013-12-15 02:33:00,4951E-4,5C000000,-0724,0973,10727,027.8,045.3,0.394,742.7,01.18,0.508
2013-12-15 02:34:00,4053E-4,5C000000,-0724,0974,10840,027.8,045.3,0.394,742.9,01.18,0.508
2013-12-15 02:35:00,5549E-4,5C000000,-0724,0973,10820,027.8,045.3,0.393,742.3,01.18,0.508
2013-12-15 02:36:00,4385E-4,5C000000,-0724,0974,10879,027.8,045.3,0.394,742.7,01.18,0.508
2013-12-15 02:37:00,3857E-4,5C000000,-0724,0973,10817,027.8,045.3,0.394,742.7,01.18,0.508
2013-12-15 02:38:00,4322E-4,5C000000,-0724,0974,10806,027.8,045.3,0.394,742.7,01.18,0.508
2013-12-15 02:39:00,3755E-4,5C000000,-0724,0974,10694,027.8,045.3,0.394,742.4,01.18,0.508
2013-12-15 02:40:00,4380E-4,5C000000,-0724,0972,10840,027.8,045.3,0.394,742.8,01.18,0.508
2013-12-15 02:41:00,5042E-4,5C000000,-0724,0974,10836,027.8,045.3,0.394,742.7,01.18,0.508
2013-12-15 02:42:00,5019E-4,5C000000,-0724,0974,10570,027.8,045.3,0.394,742.4,01.18,0.508
2013-12-15 02:43:00,4411E-4,5C000000,-0724,0973,10878,027.8,045.3,0.394,742.6,01.18,0.508
2013-12-15 02:44:00,3990E-4,5C000000,-0724,0973,10871,027.8,045.3,0.394,742.4,01.18,0.508
2013-12-15 02:45:00,4000E-4,5C000000,-0724,0972,10891,027.8,045.3,0.394,742.3,01.18,0.508
2013-12-15 02:46:00,4733E-4,5C000000,-0724,0973,10856,027.8,045.3,0.394,742.2,01.18,0.508
2013-12-15 02:47:00,4709E-4,5C000000,-0724,0973,10829,027.8,045.3,0.394,742.4,01.18,0.508
2013-12-15 02:48:00,5617E-4,5C000000,-0724,0974,10776,027.8,045.3,0.393,742.3,01.18,0.508
2013-12-15 02:49:00,5357E-4,5C000000,-0724,0974,10853,027.8,045.3,0.394,742.1,01.18,0.508
2013-12-15 02:50:00,4773E-4,5C000000,-0724,0973,10795,027.8,045.3,0.394,742.5,01.18,0.508
2013-12-15 02:51:00,5896E-4,5C000000,-0724,0974,10812,027.8,045.4,0.394,742.4,01.18,0.508
2013-12-15 02:52:00,4274E-4,5C000000,-0724,0973,10829,027.8,045.3,0.394,742.5,01.18,0.508
2013-12-15 02:53:00,5377E-4,5C000000,-0724,0973,10841,027.8,045.3,0.395,742.7,01.18,0.508
2013-12-15 02:54:00,4994E-4,5C000000,-0724,0973,10857,027.8,045.4,0.394,742.6,01.18,0.508
2013-12-15 02:55:00,4605E-4,5C000000,-0724,0974,10528,027.8,045.4,0.394,742.4,01.18,0.508
2013-12-15 02:56:00,5896E-4,5C000000,-0724,0974,10786,027.8,045.3,0.394,742.5,01.18,0.508
2013-12-15 02:57:00,4943E-4,5C000000,-0724,0974,10833,027.8,045.3,0.394,742.8,01.18,0.508
2013-12-15 02:58:00,4401E-4,5C000000,-0724,0974,10912,027.8,045.3,0.394,742.4,01.18,0.508
2013-12-15 02:59:00,3581E-4,5C000000,-0724,0973,10772,027.8,045.3,0.394,742.6,01.18,0.508
2013-12-15 03:00:00,4522E-4,5C000000,-0724,0974,10896,027.8,045.3,0.394,742.9,01.18,0.508
2013-12-15 03:01:00,4048E-4,5C000000,-0724,0974,10812,027.8,045.3,0.395,742.7,01.18,0.508
2013-12-15 03:02:00,4576E-4,5C000000,-0724,0975,10709,027.8,045.3,0.394,742.6,01.18,0.508
2013-12-15 03:03:00,4614E-4,5C000000,-0724,0975,10696,027.8,045.3,0.394,742.6,01.18,0.508
2013-12-15 03:04:00,4315E-4,5C000000,-0724,0973,10720,027.8,045.3,0.395,742.7,01.18,0.508
2013-12-15 03:05:00,4904E-4,5C000000,-0724,0974,10765,027.8,045.3,0.394,742.8,01.18,0.508
2013-12-15 03:06:00,3727E-4,5C000000,-0724,0974,10760,027.8,045.3,0.394,742.9,01.18,0.508
2013-12-15 03:07:00,4071E-4,5C000000,-0724,0975,10866,027.8,045.3,0.394,742.7,01.18,0.508
2013-12-15 03:08:00,3700E-4,5C000000,-0724,0975,10848,027.8,045.3,0.394,742.7,01.18,0.508
2013-12-15 03:09:00,4077E-4,5C000000,-0724,0974,10861,027.8,045.3,0.395,742.8,01.18,0.508
2013-12-15 03:10:00,5214E-4,5C000000,-0724,0974,10869,027.8,045.3,0.394,743.0,01.18,0.508
2013-12-15 03:11:00,3745E-4,5C000000,-0724,0973,10843,027.8,045.3,0.394,743.0,01.18,0.508
2013-12-15 03:12:00,4266E-4,5C000000,-0724,0974,10815,027.8,045.3,0.394,743.0,01.18,0.508
2013-12-15 03:13:00,5299E-4,5C000000,-0724,0974,10837,027.8,045.4,0.394,743.2,01.18,0.508
2013-12-15 03:14:00,4577E-4,5C000000,-0724,0974,10760,027.8,045.3,0.395,743.3,01.18,0.508
2013-12-15 03:15:00,3959E-4,5C000000,-0724,0974,10982,027.8,045.4,0.394,743.3,01.18,0.508
2013-12-15 03:16:00,4136E-4,5C000000,-0724,0974,10871,027.8,045.3,0.394,743.3,01.18,0.508
2013-12-15 03:17:00,4359E-4,5C000000,-0724,0974,10632,027.8,045.3,0.395,743.3,01.18,0.508
2013-12-15 03:18:00,3541E-4,5C000000,-0724,0973,10837,027.8,045.3,0.394,743.3,01.18,0.508
2013-12-15 03:19:00,3657E-4,5C000000,-0724,0973,10817,027.8,045.4,0.395,743.3,01.18,0.508
2013-12-15 03:20:00,4841E-4,5C000000,-0724,0974,10735,027.8,045.4,0.394,743.2,01.18,0.508
2013-12-15 03:21:00,3445E-4,5C000000,-0724,0974,10780,027.8,045.3,0.394,743.2,01.18,0.508
2013-12-15 03:22:00,3665E-4,5C000000,-0724,0974,10876,027.9,045.3,0.395,743.3,01.18,0.508
2013-12-15 03:23:00,3739E-4,5C000000,-0724,0974,10732,027.9,045.3,0.394,743.5,01.18,0.508
2013-12-15 03:24:00,3605E-4,5C000000,-0724,0974,10854,027.9,045.3,0.395,743.5,01.18,0.508
2013-12-15 03:25:00,4261E-4,5C000000,-0724,0975,10820,027.9,045.3,0.394,743.4,01.18,0.508
2013-12-15 03:26:00,4309E-4,5C000000,-0724,0974,10851,027.9,045.3,0.394,743.5,01.18,0.508
2013-12-15 03:27:00,3671E-4,5C000000,-0724,0973,10795,027.9,045.3,0.394,743.6,01.18,0.508
2013-12-15 03:28:00,3152E-4,5C000000,-0724,0973,10731,027.9,045.3,0.395,743.6,01.18,0.508
2013-12-15 03:29:00,4685E-4,5C000000,-0724,0973,10672,027.9,045.4,0.394,743.5,01.18,0.508
2013-12-15 03:30:00,5184E-4,5C000000,-0724,0973,10853,027.9,045.3,0.394,743.6,01.18,0.508
2013-12-15 03:31:00,4507E-4,5C000000,-0724,0974,10822,027.9,045.3,0.395,743.7,01.18,0.508
2013-12-15 03:32:00,4080E-4,5C000000,-0724,0973,10753,027.9,045.3,0.394,743.7,01.18,0.508
2013-12-15 03:33:00,4658E-4,5C000000,-0724,0973,10714,028.0,045.4,0.395,743.7,01.18,0.508
2013-12-15 03:34:00,3671E-4,5C000000,-0724,0974,10861,028.0,045.3,0.394,743.5,01.18,0.508
2013-12-15 03:35:00,3569E-4,5C000000,-0724,0974,10816,028.0,045.3,0.394,743.5,01.18,0.508
2013-12-15 03:36:00,4032E-4,5C000000,-0724,0974,10742,028.0,045.3,0.395,743.7,01.18,0.508
2013-12-15 03:37:00,4019E-4,5C000000,-0724,0974,10711,028.0,045.3,0.394,743.7,01.18,0.508
2013-12-15 03:38:00,3481E-4,5C000000,-0724,0973,10719,028.0,045.4,0.394,743.7,01.18,0.508
2013-12-15 03:39:00,4438E-4,5C000000,-0724,0974,10806,028.0,045.3,0.394,743.7,01.18,0.508
2013-12-15 03:40:00,4052E-4,5C000000,-0724,0974,10833,028.0,045.3,0.394,743.7,01.18,0.508
2013-12-15 03:41:00,4744E-4,5C000000,-0724,0974,10747,028.0,045.4,0.394,743.6,01.18,0.508
2013-12-15 03:42:00,4763E-4,5C000000,-0724,0975,10809,028.0,045.3,0.394,743.6,01.18,0.508
2013-12-15 03:43:00,4380E-4,5C000000,-0724,0974,10792,028.0,045.3,0.394,743.7,01.18,0.508
2013-12-15 03:44:00,4200E-4,5C000000,-0724,0974,10834,028.0,045.3,0.394,743.7,01.18,0.508
2013-12-15 03:45:00,4534E-4,5C000000,-0724,0974,10873,028.1,045.3,0.394,743.7,01.18,0.508
2013-12-15 03:46:00,3642E-4,5C000000,-0724,0975,10832,028.1,045.3,0.394,743.5,01.18,0.508
2013-12-15 03:47:00,4203E-4,5C000000,-0724,0975,10695,028.1,045.3,0.394,743.3,01.18,0.508
2013-12-15 03:48:00,3717E-4,5C000000,-0724,0974,10860,028.1,045.3,0.394,743.2,01.18,0.508
2013-12-15 03:49:00,4047E-4,5C000000,-0724,0975,10673,028.1,045.3,0.393,743.3,01.18,0.508
2013-12-15 03:50:00,4660E-4,5C000000,-0724,0973,10895,028.1,045.3,0.393,743.1,01.18,0.508
2013-12-15 03:51:00,3517E-4,5C000000,-0724,0975,10660,028.1,045.4,0.394,743.0,01.18,0.508
2013-12-15 03:52:00,3957E-4,5C000000,-0724,0973,10845,028.1,045.3,0.394,743.1,01.18,0.508
2013-12-15 03:53:00,4526E-4,5C000000,-0724,0975,10698,028.2,045.4,0.393,743.0,01.18,0.508
2013-12-15 03:54:00,4419E-4,5C000000,-0724,0974,10610,028.2,045.3,0.393,742.8,01.18,0.508
2013-12-15 03:55:00,3828E-4,5C000000,-0724,0974,10899,028.2,045.4,0.394,742.9,01.18,0.508
2013-12-15 03:56:00,3895E-4,5C000000,-0724,0974,10818,028.2,045.4,0.393,742.7,01.18,0.508
2013-12-15 03:57:00,3660E-4,5C000000,-0724,0976,10872,028.2,045.3,0.393,742.7,01.18,0.508
2013-12-15 03:58:00,3904E-4,5C000000,-0724,0973,10700,028.2,045.3,0.393,742.6,01.18,0.508
2013-12-15 03:59:00,4758E-4,5C000000,-0724,0975,10559,028.3,045.3,0.393,742.5,01.18,0.508
2013-12-15 04:00:00,3964E-4,5C000000,-0724,0975,10762,028.2,045.4,0.393,742.0,01.18,0.508
2013-12-15 04:01:00,3578E-4,5C000000,-0724,0974,10803,028.3,045.3,0.393,742.1,01.18,0.508
2013-12-15 04:02:00,4393E-4,5C000000,-0724,0976,10789,028.3,045.4,0.392,742.0,01.18,0.508
2013-12-15 04:03:00,3732E-4,5C000000,-0724,0975,10779,028.3,045.4,0.393,741.3,01.18,0.508
2013-12-15 04:04:00,3887E-4,5C000000,-0724,0974,10841,028.3,045.4,0.393,741.2,01.18,0.508
2013-12-15 04:05:00,4798E-4,5C000000,-0724,0975,10786,028.3,045.4,0.393,741.3,01.18,0.508
2013-12-15 04:06:00,4368E-4,5C000000,-0724,0974,10805,028.3,045.4,0.392,741.3,01.18,0.508
2013-12-15 04:07:00,4291E-4,5C000000,-0724,0974,10868,028.3,045.4,0.392,740.9,01.18,0.508
2013-12-15 04:08:00,3212E-4,5C000000,-0724,0974,10782,028.3,045.4,0.392,741.1,01.18,0.508
2013-12-15 04:09:00,4613E-4,5C000000,-0724,0974,10854,028.3,045.3,0.393,740.7,01.18,0.508
2013-12-15 04:10:00,3947E-4,5C000000,-0724,0974,10855,028.3,045.3,0.392,740.6,01.18,0.508
2013-12-15 04:11:00,4965E-4,5C000000,-0724,0975,10770,028.3,045.4,0.392,740.6,01.18,0.508
2013-12-15 04:12:00,5168E-4,5C000000,-0724,0974,10830,028.3,045.4,0.392,740.6,01.18,0.508
2013-12-15 04:13:00,3725E-4,5C000000,-0724,0974,10827,028.2,045.3,0.392,740.3,01.18,0.508
2013-12-15 04:14:00,4329E-4,5C000000,-0724,0974,10686,028.2,045.4,0.392,740.6,01.18,0.508
2013-12-15 04:15:00,4255E-4,5C000000,-0724,0975,10788,028.2,045.4,0.392,740.6,01.18,0.508
2013-12-15 04:16:00,4144E-4,5C000000,-0724,0974,10804,028.2,045.4,0.392,740.3,01.18,0.508
2013-12-15 04:17:00,4373E-4,5C000000,-0724,0973,10821,028.2,045.4,0.392,740.6,01.18,0.508
2013-12-15 04:18:00,3562E-4,5C000000,-0724,0974,10851,028.2,045.4,0.392,740.1,01.18,0.508
2013-12-15 04:19:00,4092E-4,5C000000,-0724,0975,10737,028.2,045.3,0.392,740.2,01.18,0.508
2013-12-15 04:20:00,4716E-4,5C000000,-0724,0974,10866,028.2,045.3,0.392,740.0,01.18,0.508